Location: Einbeck
(51.8202°N, 9.8696°E)
Time: 21:50:47
(UTC+00:00)

Daily predictions for brighter satellites

Satellite Brightness Start Highest point End
(mag) Time Altitude Azimuth Time Altitude Azimuth Time Altitude Azimuth
Resurs 1-3 4.4 18:06:17 10° SE 18:10:13 33° ENE 18:14:09 10° N
Cosmos 1624 Rocket 4.2 18:06:05 10° S 18:11:15 55° ESE 18:16:27 10° NNE
Cosmos 1470 Rocket 3.6 18:07:52 10° S 18:12:19 72° E 18:16:48 10° NNE
Cosmos 2016 Rocket 4.3 18:06:50 10° N 18:12:42 45° ENE 18:18:32 10° SE
NOSS 0 Rocket 4.2 18:07:23 10° NNW 18:13:30 56° NE 18:19:33 10° SE
Cosmos 1420 Rocket 4.1 18:12:29 10° S 18:17:35 58° ESE 18:22:42 10° NNE
Cosmos 2173 Rocket 4.1 18:11:33 10° N 18:17:57 73° ENE 18:24:19 10° SSE
Cosmos 2123 Rocket 4.5 18:13:18 10° SSE 18:19:04 40° E 18:24:54 10° NNE
Okean-O 3.5 18:16:24 10° SE 18:20:18 32° ENE 18:24:14 10° N
SPOT 1/Viking Rocket 4.5 18:16:41 10° ESE 18:21:10 30° ENE 18:25:41 10° N
Okean 2 4.1 18:17:30 10° N 18:21:12 32° ENE 18:24:52 10° SE
Cosmos 1263 4.2 18:18:23 10° S 18:21:48 71° E 18:24:51 10° NNE
Timation 1 Rocket 4.5 18:17:47 10° S 18:23:35 53° ESE 18:29:25 10° NE
Cosmos 1000 Rocket 4.5 18:18:55 10° S 18:24:56 62° E 18:31:00 10° NNE
DMSP B5D1-3 4.5 18:22:16 10° NNE 18:27:27 74° ESE 18:32:34 10° S
Cosmos 2242 Rocket 3.9 18:23:58 10° N 18:28:28 51° ENE 18:32:54 10° SSE
Cosmos 2100 Rocket 4.1 18:22:05 10° N 18:28:30 88° E 18:34:51 10° S
Okean O Rocket 1.6 18:24:07 10° SSE 18:28:32 86° ENE 18:32:58 10° NNW
GEOS 3 Rocket 3.8 18:23:48 10° NE 18:29:09 60° SE 18:34:28 10° SSW
YAOGAN 1 3.7 18:26:35 10° S 18:30:46 49° W 18:34:59 10° NNW
In-Cosmos 22 4.5 18:26:19 10° NNW 18:31:57 76° W 18:37:40 10° S
USA 215 3.4 18:25:53 10° ENE 18:32:28 83° NNW 18:39:00 10° WSW
ISS -3.8 18:29:26 10° WSW 18:32:48 79° S 18:35:45 13° E
CSL-04 Rocket 3.9 18:27:33 10° SE 18:32:58 57° ENE 18:38:24 10° N
Cosmos 676 Rocket 4.4 18:28:29 10° NNW 18:33:41 70° WSW 18:38:54 10° SSE
KORONAS-FOTON 4.1 18:30:50 10° NNW 18:34:38 72° W 18:38:26 10° S
SL-27 R/B 2.2 18:32:23 10° SSW 18:35:39 68° ESE 18:38:54 10° NNE
Cosmos 1452 Rocket 4.2 18:31:17 10° SSE 18:35:52 31° ESE 18:40:28 10° NE
Cosmos 2237 Rocket 2.5 18:32:44 10° NNW 18:38:16 50° NE 18:43:20 12° SE
Exosat Rocket 3.8 18:36:46 10° SSW 18:42:01 77° ESE 18:48:52 10° NNE
USA 186 1.6 18:41:54 10° SSE 18:44:59 77° ENE 18:48:07 10° N
Meteor 1-21 4.4 18:42:04 10° NNW 18:47:42 76° W 18:53:20 10° S
Okean 3 4.3 18:43:36 10° NNW 18:47:42 53° W 18:51:49 10° S
H-2A R/B 4.3 18:47:34 14° E 18:49:24 18° ENE 18:52:24 10° NNE
Cosmos 1741 Rocket 4.0 18:44:14 10° NNW 18:49:29 68° ENE 18:54:39 10° SE
Cosmos 1707 4.2 18:49:13 10° NNW 18:52:48 39° W 18:56:20 10° SSW
Cosmos 968 Rocket 4.1 18:49:17 10° NNW 18:54:08 38° NE 18:57:25 18° ESE
Okean 1-7 4.1 18:50:03 10° NNW 18:54:17 48° W 18:58:27 10° SSW
CZ-4B R/B 4.3 18:49:05 10° S 18:54:33 49° W 19:00:01 10° NNW
IRS-1C Rocket 4.2 18:50:37 10° SE 18:55:46 57° ENE 19:00:57 10° N
Cosmos 1674 4.0 18:53:41 10° NNW 18:57:13 42° W 19:00:44 10° SSW
SJ 16-02 3.4 18:55:42 10° NNE 18:57:43 13° NE 18:59:20 11° ENE
Lacrosse 5 rocket 2.8 18:56:12 10° S 18:59:08 19° SE 18:59:08 19° SE
Cosmos 1805 3.3 18:55:33 10° S 18:59:15 50° E 19:02:58 10° NNE
Cosmos 1980 3.7 18:53:58 10° NNW 18:59:41 71° ENE 19:04:23 15° SE
Cosmos 2219 Rocket 3.7 18:55:29 10° NW 19:00:38 36° WSW 19:05:46 10° S
Cosmos 2333 Rocket 4.4 18:57:47 10° NW 19:02:24 25° WSW 19:07:01 10° SSW
Cosmos 1933 Rocket 4.1 18:59:23 10° SSW 19:03:40 63° WNW 19:08:00 10° N
Cosmos 1975 3.0 18:59:45 10° SSW 19:03:42 74° W 19:07:42 10° N
SJ-6B 3.4 19:00:02 10° S 19:03:54 58° W 19:07:43 10° NNW
ERS-1 Rocket 4.5 19:04:51 16° E 19:06:34 19° NE 19:10:04 10° N
Cosmos 2233 Rocket 3.9 19:01:02 10° N 19:07:12 69° ENE 19:13:21 10° SSE
Cosmos 1726 1.9 19:05:14 10° S 19:08:41 62° E 19:12:11 10° NNE
CSL-04 Debris 4.4 19:03:59 10° S 19:09:23 73° WSW 19:14:52 10° NNW
Cosmos 2061 Rocket 4.1 19:04:52 10° N 19:11:22 90° WNW 19:17:48 10° S
Ariane Rocket 3.9 19:09:42 22° ESE 19:11:54 31° ENE 19:16:19 10° N
Cosmos 1869 Rocket 3.5 19:08:55 10° S 19:13:14 89° E 19:17:36 10° N
COSMOS 2428 3.7 19:08:24 10° NW 19:13:52 46° WSW 19:19:18 10° S
Cosmos 1900 4.3 19:09:26 10° SW 19:14:24 90° NW 19:19:21 10° NE
Landsat 5 3.7 19:10:49 10° NNE 19:14:28 40° E 19:17:14 16° SSE
SL-14 R/B 3.2 19:12:01 10° NNW 19:15:53 83° W 19:19:23 12° S
USA 281 4.1 19:13:10 10° NNE 19:19:31 52° NW 19:25:50 10° SW
Cosmos 2297 Rocket 2.5 19:16:29 10° S 19:21:45 42° ESE 19:27:04 10° NE
ATLAS 3B R/B 4.2 19:16:56 10° WNW 19:23:25 33° N 19:30:11 10° ENE
IRS-1A Rocket 4.5 19:20:53 22° SE 19:24:42 57° ENE 19:30:27 10° N
NOSS 6 (F) 4.5 19:21:56 10° NW 19:24:51 77° NE 19:25:27 53° ESE
Cosmos 1867 3.6 19:20:07 10° SSW 19:25:23 53° ESE 19:30:43 10° NE
Cosmos 1725 Rocket 4.5 19:22:17 10° NNW 19:28:22 62° W 19:34:27 10° S
Resurs 01 Rocket 1.5 19:25:55 20° SSE 19:28:56 84° ENE 19:33:22 10° NNW
Meteor 2-5 Rocket 4.3 19:24:14 10° N 19:29:44 41° ENE 19:32:01 29° ESE
CENTAUR R/B 4.0 19:24:28 10° NW 19:32:15 49° WSW 19:40:47 10° SSE
CZ-4C R/B 3.3 19:25:53 10° NW 19:32:15 49° NNE 19:36:50 24° E
NOSS 3-2 (C) 4.2 19:25:13 10° NW 19:32:32 74° SW 19:38:47 20° SSE
Cosmos 1733 3.9 19:29:43 10° SSW 19:33:25 54° WNW 19:37:09 10° N
SPOT 3 Rocket 4.3 19:32:02 29° E 19:33:34 35° ENE 19:38:17 10° N
Cosmos 1271 Rocket 3.4 19:36:58 35° ENE 19:36:58 35° ENE 19:39:44 10° NNE
MOS 1 4.2 19:33:10 21° SSE 19:37:07 80° ENE 19:42:52 10° NNW
Cosmos 2227 Rocket 2.7 19:35:03 24° SSE 19:37:37 36° ESE 19:42:43 10° NE
CZ-4 R/B 4.2 19:35:54 10° SW 19:38:20 16° W 19:40:47 10° NW
Cosmos 1470 4.3 19:40:39 21° NE 19:40:39 21° NE 19:42:28 10° NNE
Iridium 4 Rocket 4.2 19:38:00 10° NNW 19:41:59 42° W 19:45:54 10° SSW
Terra 2.9 19:42:45 27° ENE 19:43:09 28° ENE 19:47:09 10° N
Geosat 4.5 19:40:50 20° S 19:44:13 58° WSW 19:49:12 10° NW
USA 238 DEB 4.0 19:38:58 10° NW 19:46:12 74° SW 19:50:50 26° SSE
USA 238 4.0 19:39:04 10° NW 19:46:18 74° SW 19:50:55 27° SSE
SL-16 R/B 2.4 19:42:07 10° NNW 19:47:44 56° NE 19:49:39 38° ESE
MetOp-A 4.0 19:46:21 31° SSE 19:48:57 80° ENE 19:54:08 10° NNW
Cosmos 1674 Rocket 3.4 19:47:23 10° N 19:51:46 75° E 19:52:41 53° SSE
Cosmos 1733 Rocket 2.9 19:53:01 26° S 19:55:26 88° E 19:59:47 10° N
Okean-O 4.0 19:52:37 10° SSW 19:56:42 36° W 20:00:50 10° NNW
CARTOSAT-1 3.6 19:58:45 43° S 20:00:06 76° WSW 20:04:26 10° NNW
Meteor 2-13 Rocket 4.3 19:54:13 10° S 20:00:22 83° E 20:06:34 10° NNE
SPOT 1/Viking Rocket 4.3 19:55:57 13° S 20:00:23 50° W 20:05:28 10° NNW
Cosmos 1110 Rocket 4.0 19:57:21 10° SSW 20:02:34 78° WNW 20:07:47 10° NNE
SPOT 5 2.8 20:02:23 54° E 20:02:51 56° ENE 20:07:36 10° N
Cosmos 1378 Rocket 3.5 19:58:33 10° NNW 20:02:59 83° W 20:04:03 52° S
Cosmos 2221 Rocket 3.7 19:59:37 10° NNW 20:04:03 71° W 20:05:26 42° SSW
Cosmos 1464 Rocket 4.0 19:59:57 10° N 20:06:18 68° ENE 20:08:27 43° SE
USA 245 3.9 20:08:40 41° NNE 20:08:40 41° NNE 20:11:32 10° N
BREEZE-M DEB (TANK) 3.5 20:04:33 10° W 20:08:22 38° SW 20:08:22 38° SW
ISS -2.8 20:06:14 10° W 20:08:42 46° W 20:08:42 46° W
USA 215 3.7 20:10:32 19° ENE 20:15:15 58° N 20:21:38 10° W
Cosmos 1891 Rocket 4.4 20:11:00 10° N 20:17:10 85° W 20:19:48 38° S
ADEOS Rocket 3.3 20:15:26 46° ESE 20:17:10 60° ENE 20:24:07 10° N
Cosmos 1452 Rocket 4.4 20:12:40 10° SW 20:17:46 49° WNW 20:22:56 10° NNE
Cosmos 1766 4.0 20:17:38 33° SW 20:18:56 48° WNW 20:22:39 10° N
Cosmos 1331 Rocket 4.3 20:14:29 10° SW 20:19:35 64° WNW 20:24:45 10° NNE
Meteor 1-22 Rocket 4.3 20:20:16 50° SSE 20:21:46 67° E 20:27:48 10° NNE
Cosmos 2237 Rocket 3.4 20:17:05 10° NW 20:22:10 35° WSW 20:25:11 21° SSW
Cosmos 1908 Rocket 4.3 20:25:08 43° NE 20:25:08 43° NE 20:28:17 10° NNE
H-2A R/B 2.6 20:23:55 72° SW 20:24:10 75° WSW 20:28:38 10° NNW
Cosmos 1025 Rocket 3.9 20:20:39 10° N 20:23:45 37° NNE 20:23:45 37° NNE
Meteor 1-15 Rocket 4.2 20:24:43 39° S 20:27:00 87° ESE 20:32:56 10° NNE
Cosmos 1340 Rocket 4.1 20:23:26 10° N 20:25:51 31° NNE 20:25:51 31° NNE
Cosmos 2263 Rocket 4.4 20:31:41 11° NE 20:31:41 11° NE 20:31:55 10° NE
Cosmos 2346 Rocket 4.4 20:31:22 37° SSW 20:34:01 87° W 20:40:17 10° N
ATLAS CENTAUR R/B 3.9 20:19:58 10° WSW 20:34:42 86° NNW 20:40:10 18° ENE
Cosmos 968 Rocket 4.5 20:31:09 10° NW 20:35:57 40° WSW 20:37:26 32° SW
SJ 16-02 1.9 20:32:44 10° NNW 20:36:14 51° N 20:36:14 51° N
ARIANE 5 R/B 4.1 20:38:52 26° NNE 20:38:52 26° NNE 20:41:24 10° N
Lacrosse 5 rocket 3.5 20:33:23 10° SW 20:34:34 18° SW 20:34:34 18° SW
Meteor 1-12 Rocket 4.4 20:38:17 34° SSW 20:40:56 74° WNW 20:46:41 10° N
Cosmos 1975 Rocket 4.0 20:36:49 10° N 20:39:54 41° NNE 20:39:54 41° NNE
FALCON 9 R/B 4.4 20:31:16 10° WSW 20:43:43 25° SSW 20:45:16 24° SSW
ERS-1 Rocket 2.9 20:44:49 82° W 20:44:49 82° W 20:49:50 10° NNW
Meteor 1-24 Rocket 4.0 20:40:02 10° NNW 20:45:53 67° W 20:47:15 51° SSW
Cosmos 1816 Rocket 4.3 20:47:04 69° E 20:47:04 69° E 20:53:08 10° NNE
Cosmos 1634 Rocket 4.3 20:42:23 10° N 20:48:28 52° ENE 20:48:28 52° ENE
Ariane Rocket 3.7 20:49:52 44° SW 20:50:41 48° W 20:55:36 10° NNW
Cosmos 1603 4.3 20:45:30 10° NNW 20:51:00 44° NE 20:51:00 44° NE
BREEZE-M DEB (TANK) 3.6 20:45:46 10° WNW 20:50:43 48° SW 20:50:43 48° SW
NOSS 3-4 (A) 4.2 20:55:35 37° NE 20:55:35 37° NE 20:59:17 10° NE
NOSS 3-4 (C) 4.3 20:55:52 34° NE 20:55:52 34° NE 20:59:23 10° NE
Cosmos 1943 3.5 20:49:14 10° NNW 20:54:31 55° NE 20:54:31 55° NE
Spot 2 Rocket 3.8 21:01:35 62° W 21:01:35 62° W 21:06:32 10° NNW
Cosmos 2344 4.3 20:57:07 10° NW 21:04:59 56° NNE 21:08:49 37° E
Cosmos 2297 Rocket 3.3 21:00:27 10° WSW 21:05:50 43° NW 21:11:15 10° NNE
Resurs 01 Rocket 4.3 21:03:45 10° WSW 21:06:01 14° W 21:08:16 10° NW
Cosmos 2034 Rocket 4.1 21:01:02 10° NNW 21:07:12 69° W 21:07:52 64° SW
SPOT 3 Rocket 4.4 21:12:40 43° WSW 21:12:53 43° W 21:17:53 10° NNW
Cosmos 2219 3.3 21:13:56 70° NW 21:13:56 70° NW 21:19:32 10° NNE
Tsikada Rocket 4.0 21:15:13 67° NE 21:15:13 67° NE 21:20:36 10° NNE
Meteor 2-19 Rocket 4.4 21:15:20 81° W 21:15:23 81° WNW 21:21:32 10° N
ATLAS 3B R/B 3.5 21:08:36 10° NW 21:15:50 50° NNE 21:17:41 42° ENE
Terra 2.9 21:21:29 42° WNW 21:21:29 42° WNW 21:25:11 10° NNW
CZ-4C R/B 2.9 21:14:16 10° NW 21:21:17 71° SW 21:21:59 67° SSW
Cosmos 2227 Rocket 2.9 21:16:01 10° SW 21:21:31 50° NW 21:27:03 10° NNE
SL-16 R/B 3.5 21:26:38 10° NW 21:31:32 31° WSW 21:31:32 31° WSW
H-2A R/B 4.2 21:49:54 10° N 21:51:45 23° N 21:51:45 23° N
Cosmos 2279 Rocket 4.3 21:51:15 10° NNW 21:56:22 61° NNW 21:56:22 61° NNW
USA 215 3.4 21:57:51 67° NNE 21:57:54 68° NNE 22:04:25 10° WNW
NOSS 3-1 (C) 4.2 21:53:26 10° NW 22:00:11 57° NE 22:00:49 55° NE
ADEOS Rocket 4.3 22:02:21 32° WSW 22:03:08 33° W 22:09:19 10° NNW
Cosmos 2263 Rocket 3.5 22:13:19 34° NNE 22:13:19 34° NNE 22:16:27 10° NNE
SJ 16-02 4.1 22:12:13 10° NW 22:13:08 13° WNW 22:13:08 13° WNW
ATLAS 2AS CENTAUR R/B 3.9 22:29:02 35° ENE 22:29:02 35° ENE 22:32:57 10° NE
ATLAS CENTAUR R/B 3.7 22:40:20 10° W 22:49:44 53° NNW 22:49:44 53° NNW
Cosmos 2082 Rocket 4.0 22:57:58 10° NNW 23:02:28 24° NE 23:02:28 24° NE
NOSS 3-1 (A) 4.2 22:57:26 10° NW 23:03:39 64° N 23:03:39 64° N
ATLAS 3B R/B 3.5 22:59:31 10° NW 23:04:55 49° WNW 23:04:55 49° WNW
Cosmos 1833 Rocket 4.2 23:09:36 10° NNW 23:12:53 33° N 23:12:53 33° N
Cosmos 2344 4.3 23:11:24 10° NW 23:18:50 58° W 23:18:50 58° W
Cosmos 2263 Rocket 4.3 23:54:56 19° NW 23:55:56 19° NNW 23:59:54 10° NNE
